Glens Falls, NY

2:22 AM EST on December 07, 2019 (GMT -0500)
Bennett Memorial

Weather History for KGFL - October, 2019

Change the Weather History Date:

Tuesday, October 29, 2019

  Actual Average Record
Temperature  
Mean Temperature 55 °F 42 °F  
Max Temperature 59 °F 53 °F 76 °F (1946)
Min Temperature 50 °F 32 °F 19 °F (2001)
Degree Days  
Heating Degree Days 10 23  
Month to date heating degree days 461 524  
Since 1 July heating degree days 683 809  
Cooling Degree Days 0 0  
Month to date cooling degree days 0 0  
Year to date cooling degree days 416 351  
Growing Degree Days 4 (Base 50)    
Moisture  
Dew Point 48 °F    
Average Humidity 80    
Maximum Humidity 93    
Minimum Humidity 67    
Precipitation  
Precipitation 0.01 in 0.12 in 1.13 in (2017)
Month to date precipitation 6.28 3.29  
Year to date precipitation 37.13 32.48  
Sea Level Pressure  
Sea Level Pressure 30.27 in    
Wind  
Wind Speed 5 mph (South)    
Max Wind Speed 15 mph    
Max Gust Speed 23 mph    
Visibility 10 miles    
Events Rain    
T = Trace of Precipitation, MM = Missing Value Source: NWS Daily Summary

Daily Weather History Graph

Daily Weather History Graph

Search for Another Location

Airport or City:

Astronomy

Oct. 29, 2019 Rise Set
Actual Time 7:25 AM EDT 5:50 PM EDT
Civil Twilight 6:55 AM EDT 6:19 PM EDT
Nautical Twilight 6:22 AM EDT 6:53 PM EDT
Astronomical Twilight 5:49 AM EDT 7:26 PM EDT
Moon 8:57 AM EDT (10/29) 7:10 PM EDT (10/29)
Length of Visible Light 11h 23m
Length of Day
10h 24m
Waxing Crescent, 3% of the Moon is Illuminated
Oct 29
Waxing Crescent
Nov 4
First Quarter
Nov 12
Full
Nov 19
Last Quarter
Nov 26
New

Hourly Weather History & Observations

Time (EDT) Temp. Dew Point Humidity Pressure Visibility Wind Dir Wind Speed Gust Speed Precip Events Conditions
12:53 AM 50.0 °F 48.0 °F 93% 30.27 in 10.0 mi Calm Calm - N/A   Overcast
1:53 AM 50.0 °F 48.0 °F 93% 30.27 in 10.0 mi Calm Calm - N/A   Overcast
2:32 AM 51.1 °F 48.9 °F 92% 30.27 in 10.0 mi Calm Calm - N/A   Overcast
2:53 AM 51.1 °F 48.0 °F 89% 30.28 in 10.0 mi Calm Calm - N/A   Overcast
3:53 AM 53.1 °F 48.0 °F 83% 30.27 in 10.0 mi Calm Calm - N/A   Overcast
4:53 AM 52.0 °F 48.0 °F 86% 30.27 in 10.0 mi SSE 4.6 mph - N/A   Overcast
5:53 AM 52.0 °F 48.0 °F 86% 30.28 in 10.0 mi Calm Calm - N/A   Overcast
6:53 AM 52.0 °F 48.0 °F 86% 30.27 in 10.0 mi South 5.8 mph - N/A   Overcast
7:41 AM 51.1 °F 48.0 °F 89% 30.28 in 9.0 mi South 5.8 mph - 0.00 in Rain Light Rain
7:53 AM 51.1 °F 48.0 °F 89% 30.29 in 9.0 mi South 6.9 mph - 0.00 in   Overcast
8:15 AM 51.1 °F 48.0 °F 89% 30.28 in 9.0 mi South 6.9 mph - 0.00 in   Overcast
8:53 AM 52.0 °F 48.9 °F 89% 30.31 in 7.0 mi SSW 4.6 mph - 0.01 in   Overcast
9:39 AM 53.1 °F 48.9 °F 86% 30.29 in 10.0 mi South 8.1 mph - 0.00 in   Overcast
9:53 AM 53.1 °F 48.0 °F 83% 30.30 in 10.0 mi South 9.2 mph - 0.00 in   Overcast
10:48 AM 53.6 °F 46.4 °F 77% 30.30 in 10.0 mi South 8.1 mph - N/A   Overcast
10:53 AM 54.0 °F 46.0 °F 75% 30.31 in 10.0 mi South 8.1 mph - N/A   Overcast
11:53 AM 54.0 °F 46.9 °F 77% 30.30 in 10.0 mi SW 9.2 mph - N/A   Overcast
12:53 PM 55.0 °F 46.0 °F 72% 30.28 in 10.0 mi South 9.2 mph - N/A   Overcast
1:13 PM 55.9 °F 46.0 °F 69% 30.25 in 10.0 mi SSE 10.4 mph - N/A   Overcast
1:53 PM 57.9 °F 46.9 °F 67% 30.25 in 10.0 mi SSE 8.1 mph - N/A   Overcast
2:20 PM 57.0 °F 46.9 °F 69% 30.23 in 10.0 mi South 11.5 mph - N/A   Overcast
2:33 PM 57.0 °F 46.9 °F 69% 30.23 in 10.0 mi South 10.4 mph - N/A   Overcast
2:53 PM 57.9 °F 48.0 °F 70% 30.23 in 10.0 mi South 11.5 mph - N/A   Overcast
3:53 PM 59.0 °F 48.0 °F 67% 30.23 in 10.0 mi South 5.8 mph - N/A   Overcast
4:53 PM 59.0 °F 48.0 °F 67% 30.23 in 10.0 mi South 5.8 mph - N/A   Overcast
5:53 PM 57.9 °F 48.0 °F 70% 30.23 in 10.0 mi Calm Calm - N/A   Overcast
6:53 PM 53.1 °F 48.0 °F 83% 30.24 in 10.0 mi Calm Calm - N/A   Overcast
7:53 PM 57.0 °F 48.9 °F 74% 30.24 in 10.0 mi South 8.1 mph - N/A   Overcast
8:23 PM 55.9 °F 50.0 °F 80% 30.23 in 10.0 mi South 6.9 mph - N/A   Overcast
8:53 PM 55.9 °F 50.0 °F 80% 30.25 in 10.0 mi South 4.6 mph - N/A   Overcast
9:53 PM 55.9 °F 51.1 °F 84% 30.26 in 10.0 mi SW 5.8 mph - N/A   Overcast
10:53 PM 55.0 °F 51.1 °F 86% 30.27 in 10.0 mi South 4.6 mph - N/A   Overcast
11:53 PM 55.0 °F 51.1 °F 86% 30.28 in 10.0 mi South 3.5 mph - N/A   Overcast